CYGNUS NG-13

Last updated on Sat May 30 2020 00:02:07 GMT+0000 (Coordinated Universal Time)

1 45175U 20011A 20150.22790637 .00161088 00000-0 12714-2 0 9991 2 45175 51.6352 84.5771 0003513 212.6112 336.1404 15.70365447 15992

Satellite not in orbit